SCP
-0 -0 0 0 0 0 0 0 0 0 0 0 0 0 0 0 0 0 0 0 0 0 0 0 0 0 0 0 0 0 0 0 0 0 0 0 0 0 0 0 0 0 0 0 0 0 0 0 0
0 0 0 0 0 0 0 0 0 0 0 0 0 0 0 0 0 0 0 0 0 0 0 0 0 0 0 0 0 0 0 0 0 0 0 0 0 0 0 0 0 0 0 0 0 0 0 0 0
0 0 0 0 0 0 0 0 0 0 0 0 0 0 0 0 0 0 0 0 0 0 0 0 0 0 0 0 0 0 0 0 0 0 0 0 0 0 0 0 0 0 0 0 0 0 0 0 0
0 0 0 0 0 0 0 0 0 0 0 0 0 0 0 0 0 0 0 0 0 0 0 0 0 0 0 0 0 0 0 0 0 0 0 0 0 0 0 0 0 0 0 0 0 0 0 0 0
0 0 0 0 0 0 0 0 0 0 0 0 0 0 0 0 0 0 0 0 0 0 0 0 0 0 0 0 0 0 0 0 0 0 0 0 0 0 0 0 0 0 0 0 0 0 0 0 0
0 0 0 0 0 0 0 0 0 0 0 0 0 0 0 0 0 0 0 0 0 0 0 0 0 0 0 0 0 0 0 0 0 0 0 0 0 0 0 0 0 0 0 0 0 0 0 0 0
0 0 0 0 0 0 0 0 0 0 0 0 0 0 0 0 0 0 0 0 0 0 0 0 0 0 0 0 0 0 0 0 0 0 0 0 0 0 0 0 0 0 0 0 0 0 0 0 0
0 0 0 0 0 0 0 0 0 0 0 0 0 0 0 0 0 0 0 0 0 0 0 0 0 0 0 0 0 0 0 0 0 0 0 0 0 0 0 0 0 0 0 0 0 0 0 0 0
0 0 0 0 0 0 0 0 0 0 0 0 0 0 1 1 1 0 0 0 0 0 0 0 0 0 0 0 0 0 0 0 0 0 0 0 0 0 0 0 0 0 0 0 0 0 0 0 0
0 0 0 0 0 0 0 0 0 1 1 0 0 1 1 1 1 1 0 0 0 0 0 0 0 0 0 0 0 0 0 0 0 0 0 0 0 0 0 0 0 0 0 0 0 0 0 0 0
0 0 0 0 0 0 0 0 1 1 1 1 1 1 1 1 1 1 0 0 0 0 0 0 0 0 0 0 0 0 0 0 0 0 0 0 0 0 0 0 0 0 0 0 0 0 0 0 0
0 0 0 0 0 0 0 1 1 1 1 1 1 1 1 1 1 1 1 0 0 0 0 0 0 0 0 0 0 0 0 0 0 0 0 0 0 0 0 0 0 0 0 0 0 0 0 0 0
0 0 0 0 0 0 1 1 1 1 1 1 1 1 1 1 1 1 1 1 1 1 0 0 0 0 0 0 0 0 0 0 0 0 0 0 0 0 0 0 0 0 0 0 0 0 0 0 0
0 0 0 0 0 0 1 1 1 2 2 2 1 1 1 1 1 1 1 1 1 1 1 1 1 1 1 0 0 0 0 0 0 0 0 0 0 0 0 0 0 0 0 0 0 0 0 0 0
0 0 0 0 0 0 1 1 2 2 2 2 2 2 1 1 1 2 2 2 1 1 1 1 1 1 1 1 1 0 0 0 0 0 0 0 0 0 0 0 0 0 0 0 0 0 0 0 0
0 0 0 0 0 0 0 1 1 2 2 2 2 2 2 2 2 2 2 2 2 2 1 1 1 1 1 1 1 1 1 1 1 1 1 0 0 0 0 0 0 0 0 0 0 0 0 0 0
0 0 0 0 0 0 0 0 1 2 2 2 2 2 2 2 1 1 2 3 3 2 2 1 1 1 1 2 3 4 3 1 1 1 1 1 1 0 0 0 0 0 0 0 0 0 0 0 0
0 0 0 0 0 0 0 0 1 1 2 2 3 3 3 2 2 2 2 3 3 3 3 2 2 1 2 3 5 7 5 2 2 2 1 1 1 1 1 0 0 0 1 1 0 0 0 0 0
0 0 0 0 0 0 0 0 1 2 2 3 3 3 3 3 3 3 3 3 3 3 3 3 2 2 2 3 5 5 5 3 3 3 2 1 1 1 1 1 1 1 1 1 1 0 0 0 0
0 0 0 0 0 0 0 0 1 2 3 4 4 4 4 4 4 4 3 3 3 3 3 3 3 3 3 4 4 4 4 4 4 4 3 2 2 1 1 1 1 1 1 1 1 1 1 1 1
0 0 0 0 0 0 0 0 1 2 3 4 4 5 5 4 4 4 4 3 3 3 3 3 4 4 4 4 4 4 4 5 5 4 4 3 2 2 2 1 1 1 1 1 1 1 1 1 1
0 0 0 0 0 0 0 0 1 1 2 3 3 4 4 4 4 4 4 4 4 4 4 4 4 5 5 5 4 4 4 4 4 4 4 3 3 2 2 1 1 1 1 1 1 1 1 1 1
0 0 0 0 0 0 0 0 0 1 1 2 2 3 3 4 4 5 5 5 5 5 5 4 4 5 5 4 4 4 4 4 4 4 3 3 3 2 1 1 1 1 1 1 1 1 1 1 1
0 0 0 0 0 0 0 0 0 1 1 2 2 2 3 4 4 5 5 6 6 6 5 5 5 5 5 4 4 4 4 4 3 3 3 2 2 1 1 1 1 1 1 1 1 1 1 1 1
0 0 0 0 0 0 0 0 1 1 2 2 2 2 3 3 4 5 5 6 6 6 5 5 5 5 5 5 4 4 4 3 3 3 2 2 2 1 1 1 1 1 1 1 1 1 1 1 2
0 0 0 0 0 0 0 1 1 2 2 2 2 2 2 3 3 4 4 5 5 5 5 5 5 5 5 4 4 4 4 3 3 3 3 2 2 1 1 1 1 1 1 1 1 2 2 2 2
0 0 0 1 1 0 0 1 1 1 2 2 2 2 2 2 2 3 3 4 4 4 4 4 4 4 4 4 3 3 3 3 2 2 2 2 2 1 1 1 1 1 1 1 1 1 1 2 2
0 0 1 1 1 0 0 1 1 1 1 1 1 1 1 1 1 2 3 3 3 3 4 4 3 3 3 2 2 2 2 2 1 1 1 1 1 1 1 1 1 1 1 1 1 1 1 1 1
0 0 0 1 1 0 0 1 1 1 1 1 1 1 0 0 1 1 2 2 2 2 3 3 2 2 2 1 1 1 1 1 1 1 1 0 0 0 1 1 1 1 1 1 1 1 1 1 1
0 0 0 1 1 0 0 1 1 1 1 1 1 0 0 0 0 1 1 1 1 1 2 2 2 1 1 1 1 1 0 0 0 0 0 0 0 0 0 0 0 0 0 0 0 0 0 1 1
Wind_Speed
7 7 6 6 8 5 4 5 3 4 4 4 5 2 2 4 4 8 10 15 15 15 15 15 13 12 12 12 12 13 14 16 15 14 13 12 11 11 10 9 9 9 9 9 9 9 9 9 9
4 6 6 7 7 2 5 4 4 4 6 7 6 3 4 7 8 10 12 14 15 15 14 14 15 13 12 12 12 12 14 14 14 14 13 12 11 10 10 9 9 9 9 8 8 8 8 8 8
5 7 7 6 4 1 5 5 6 7 8 5 4 4 5 6 7 10 12 16 15 14 13 15 15 13 13 12 12 12 13 13 13 13 12 11 10 10 9 9 9 8 8 7 7 7 7 8 8
6 8 8 8 4 3 2 6 7 8 7 4 5 7 7 6 6 11 15 15 15 14 14 15 14 14 12 12 12 12 12 12 12 12 11 10 9 9 8 8 7 7 7 6 6 6 6 6 6
7 7 9 8 3 3 1 5 7 6 6 6 6 8 9 7 9 15 15 15 14 14 13 16 14 14 12 11 11 11 11 11 11 10 9 8 8 8 8 7 6 6 6 5 5 5 5 5 6
7 7 10 9 6 3 4 7 9 5 5 7 7 11 9 8 11 15 15 13 13 12 12 14 14 13 13 12 11 10 10 10 10 9 8 7 7 6 6 6 6 5 5 5 5 5 5 6 6
8 9 12 9 5 5 4 6 9 7 6 7 8 10 9 8 11 13 13 12 12 12 12 12 13 13 12 11 11 11 10 9 9 8 7 7 7 6 5 5 5 5 5 5 5 6 6 7 7
6 8 12 10 8 5 5 7 6 6 6 6 7 7 10 13 14 14 13 11 10 10 10 11 11 11 12 12 10 9 9 9 8 7 7 7 6 7 6 7 6 5 5 5 6 6 7 7 8
6 9 11 9 6 2 4 8 6 2 7 6 4 2 12 20 17 15 13 11 10 9 8 9 11 9 9 10 11 10 9 8 9 9 8 8 9 9 9 6 5 4 5 6 7 7 8 8 11
9 11 9 1 1 3 3 8 10 10 11 8 8 9 18 20 18 17 16 15 14 13 11 8 9 9 9 7 8 7 8 9 8 6 8 8 4 3 4 8 5 6 6 8 8 8 9 11 8
9 9 3 3 2 5 5 8 10 11 12 12 13 17 20 20 18 17 16 15 14 13 12 11 9 9 8 6 6 5 5 5 7 6 6 4 4 5 5 5 8 8 8 7 8 9 7 5 4
9 8 5 4 2 5 6 7 11 12 5 7 12 19 21 21 19 18 16 15 14 14 13 12 10 9 8 7 6 5 5 5 5 7 7 6 4 4 4 3 3 4 4 3 3 3 3 4 5
11 7 7 7 7 6 6 8 9 10 7 8 14 18 20 19 17 15 15 14 13 13 13 12 11 10 9 7 6 6 6 6 6 5 6 6 5 5 3 3 3 5 3 4 4 4 3 5 5
8 8 8 8 7 5 6 6 8 7 9 10 14 17 18 18 17 16 15 14 14 14 14 13 12 12 10 9 7 6 6 5 6 6 7 7 6 4 3 5 4 5 5 4 3 4 4 4 3
7 10 11 10 8 5 6 10 9 8 10 11 13 14 16 16 16 16 15 14 14 14 13 13 13 12 12 11 10 8 7 7 7 6 7 7 7 5 5 5 5 4 4 4 4 4 4 4 3
10 12 13 11 9 6 10 12 10 9 9 9 10 12 13 14 15 14 14 13 13 13 13 13 12 13 13 11 9 8 7 7 6 6 6 8 8 7 5 5 5 4 4 3 3 4 4 3 4
12 14 15 10 7 7 12 11 8 5 5 6 8 10 11 12 13 13 13 13 12 12 12 13 12 13 13 12 9 8 6 6 5 5 5 6 8 8 6 6 5 6 4 4 4 3 4 4 4
10 13 13 12 8 9 13 13 7 1 3 3 5 7 9 11 12 12 13 13 12 11 11 12 13 12 11 8 7 6 6 5 5 5 5 7 7 8 7 6 6 7 5 5 4 5 5 5 5
6 10 11 9 4 9 13 13 10 3 4 3 3 5 7 8 9 10 11 12 12 12 12 13 13 12 9 7 6 5 5 4 3 4 6 7 8 7 6 6 6 6 6 6 8 6 6 5 4
9 10 11 8 6 9 11 11 6 2 2 1 1 3 4 6 7 9 10 11 12 13 13 13 13 12 10 7 5 3 3 2 2 3 4 6 7 7 7 6 6 7 6 8 8 6 6 6 4
11 12 11 10 8 9 10 14 11 5 3 3 3 2 1 2 5 7 9 11 12 13 13 11 12 11 10 9 6 4 3 3 3 3 2 4 6 6 7 7 7 6 7 7 7 7 8 6 5
9 6 7 9 11 12 12 13 13 10 8 6 4 3 3 1 2 4 7 9 10 10 9 10 9 9 9 9 8 9 7 7 6 4 2 2 3 5 6 7 7 7 6 7 8 7 6 7 6
4 1 6 9 12 14 12 13 11 10 10 7 5 5 6 5 4 2 1 3 4 5 5 5 5 6 6 6 7 8 8 6 5 4 4 3 2 4 6 6 6 7 6 8 8 7 7 6 7
3 6 8 10 12 17 17 15 12 7 5 5 5 6 7 7 7 7 6 5 4 3 3 3 4 4 4 4 4 6 6 6 6 6 5 4 3 3 5 5 6 6 6 6 6 7 8 7 7
10 11 10 11 14 16 13 12 8 8 5 4 5 6 7 8 9 9 8 7 6 6 5 4 5 5 4 3 2 2 4 5 5 5 5 4 3 3 3 4 5 5 5 5 5 6 7 7 7
13 16 13 11 13 11 7 12 3 7 6 6 7 7 8 9 9 10 9 8 7 6 5 5 5 5 4 3 1 0 1 2 2 3 3 3 3 2 3 4 5 5 5 6 5 6 7 7 7
8 11 13 13 14 13 11 8 6 6 6 6 7 8 8 8 8 8 8 8 8 7 6 5 5 5 5 4 3 2 2 2 1 1 2 1 1 1 3 4 5 5 6 6 6 6 7 7 8
7 5 5 6 8 11 13 13 5 10 8 6 6 6 6 6 6 7 7 7 6 6 5 6 5 5 5 4 4 3 3 3 3 2 3 3 3 3 4 4 5 5 6 6 6 7 6 7 8
7 7 6 5 5 6 7 4 3 2 7 6 6 6 5 5 5 5 6 6 6 6 6 5 5 5 4 4 4 3 3 3 3 3 4 3 3 3 4 5 5 6 6 6 6 7 7 8 8
7 9 8 8 8 7 8 2 7 6 7 7 7 5 4 4 4 5 5 5 6 6 6 5 4 4 4 3 3 3 3 3 3 4 3 3 3 3 4 4 5 5 5 5 6 7 7 7 7
Wind_Direction
223 219 223 235 243 222 99 97 93 124 109 93 110 104 62 52 13 70 114 137 140 141 137 146 144 143 138 132 129 131 136 142 145 146 146 145 143 139 134 128 123 123 126 131 132 129 122 118 120
228 194 223 242 261 166 105 104 127 93 97 117 113 104 88 74 56 104 132 138 146 142 143 145 140 144 140 136 132 130 133 137 141 142 144 145 145 143 139 132 127 125 127 131 134 134 135 133 134
223 225 253 253 267 0 103 116 115 113 134 144 115 71 52 75 103 125 135 146 147 144 142 132 145 145 144 141 138 135 135 138 140 143 147 150 150 148 142 138 133 129 129 135 140 142 144 144 148
217 219 238 252 235 69 81 137 141 144 149 145 139 104 80 87 119 127 139 151 149 149 143 137 149 147 148 147 145 144 143 143 143 145 148 149 147 145 146 144 141 136 135 136 140 144 148 150 154
233 246 239 236 210 117 166 171 177 175 140 138 141 110 98 101 112 131 146 152 154 150 142 141 150 150 153 154 153 151 151 150 150 149 148 147 146 149 150 148 144 142 144 148 152 155 157 164 168
225 240 244 229 184 163 198 204 207 189 139 141 142 126 98 115 135 144 147 155 154 147 146 139 149 155 159 162 162 161 160 159 159 159 159 159 161 164 164 162 161 161 162 167 175 181 181 185 190
246 241 246 243 207 189 192 203 208 190 173 159 153 131 121 145 144 145 144 158 154 154 152 150 156 161 164 168 170 169 168 168 169 171 174 176 178 177 176 177 180 185 189 194 199 203 205 207 209
260 254 243 233 228 196 162 190 201 199 149 130 162 154 150 155 153 147 148 159 157 162 159 157 162 163 168 168 167 167 167 170 173 179 182 182 185 190 190 202 180 200 209 215 221 226 229 229 227
235 244 237 226 223 199 172 183 149 192 140 151 166 82 128 144 152 150 154 163 167 170 165 175 162 168 174 171 155 169 169 170 178 183 181 202 213 198 189 185 148 211 223 228 232 237 243 245 229
223 235 233 49 313 319 210 205 168 176 170 165 150 120 130 149 157 161 168 172 174 173 174 183 176 170 181 178 163 184 183 172 203 180 185 208 209 232 237 130 194 226 234 235 229 232 236 239 234
225 240 220 192 251 299 237 203 192 194 190 184 169 152 153 160 166 170 174 178 177 175 178 181 182 182 187 185 182 188 193 173 198 192 205 226 218 205 219 195 187 204 219 227 196 213 229 237 251
231 226 235 243 274 285 264 208 196 212 181 161 165 159 163 170 174 176 176 180 177 179 181 182 183 185 197 200 191 196 201 189 201 182 212 206 216 231 224 236 238 211 209 215 248 247 242 267 265
228 228 231 247 263 274 253 222 206 201 144 142 155 165 173 177 178 177 176 180 181 183 186 184 186 189 192 203 214 208 207 200 199 203 204 228 228 228 238 257 280 275 264 221 222 253 266 272 262
224 236 239 249 256 242 236 207 205 188 167 163 167 175 182 183 180 178 179 183 187 189 189 187 191 193 196 201 211 216 215 201 216 205 206 216 240 247 264 255 259 271 272 281 274 260 265 271 298
239 236 228 224 230 219 228 207 199 145 167 172 177 182 185 187 186 186 184 187 192 192 193 191 194 197 199 206 211 214 218 205 211 205 210 219 238 245 258 274 268 271 278 273 270 272 267 271 280
224 231 226 203 221 209 236 212 165 151 170 172 178 183 187 189 194 193 189 193 196 196 194 197 199 197 201 209 212 215 217 209 211 213 213 220 241 250 260 274 277 287 276 268 256 262 270 273 282
213 224 223 195 207 217 233 229 163 151 187 179 177 182 189 191 201 198 197 198 200 201 196 200 207 205 205 206 208 220 216 221 227 227 232 232 245 254 252 264 279 275 271 274 276 284 288 297 300
218 227 221 214 188 218 225 236 211 168 247 214 177 176 188 195 204 203 205 204 201 202 201 205 209 214 214 212 216 230 233 228 238 245 250 255 254 255 257 257 260 270 270 273 274 283 275 285 283
269 245 228 218 180 233 228 234 238 272 257 218 189 183 187 195 199 202 208 210 204 203 204 208 214 213 215 216 219 224 233 248 259 261 263 263 263 264 259 268 267 265 265 270 274 275 274 271 281
239 238 233 218 211 241 234 232 230 301 298 317 180 186 193 188 194 202 209 212 213 207 210 213 217 218 216 217 219 220 227 241 267 291 293 284 279 276 266 263 266 264 268 267 270 269 281 288 282
228 236 236 232 207 229 244 239 215 173 156 119 98 95 147 203 212 205 210 216 217 216 214 218 219 218 216 215 211 196 193 201 211 227 242 278 290 289 289 281 273 268 265 266 269 269 266 275 278
224 227 252 246 239 231 223 251 212 179 174 152 116 90 70 51 270 233 219 219 222 221 218 219 219 218 217 215 216 213 214 213 214 211 216 258 300 306 300 292 286 272 263 261 263 264 265 267 268
279 250 247 252 253 258 235 249 242 179 191 153 102 63 44 33 17 356 279 225 215 211 206 202 202 201 201 213 216 217 223 222 212 205 221 240 269 292 300 301 295 281 270 264 263 272 263 258 259
245 238 241 246 251 247 243 246 253 200 174 132 89 64 52 45 44 40 40 60 78 95 123 140 151 151 161 185 206 224 230 224 219 224 232 245 261 275 287 299 296 284 275 267 265 267 260 255 257
225 236 236 233 227 241 236 242 250 89 83 76 75 67 58 51 48 45 45 59 72 77 86 107 120 121 126 143 178 223 236 228 229 238 238 242 252 256 270 282 281 285 284 278 273 264 265 260 259
232 238 243 253 252 249 201 240 204 106 108 105 91 77 62 52 47 44 40 44 58 72 80 89 100 105 106 106 99 360 283 259 250 250 259 250 252 254 260 265 272 280 280 279 277 274 268 267 268
244 242 252 262 272 273 246 222 141 147 142 121 99 80 63 50 46 45 42 42 44 50 58 72 89 94 89 85 82 65 42 9 7 338 296 296 302 284 266 273 281 288 290 291 288 279 280 278 272
266 249 231 239 251 250 256 252 243 181 170 136 103 81 65 55 51 48 47 47 50 52 55 62 70 77 80 82 75 71 58 44 37 25 27 13 2 347 320 310 304 299 296 290 287 284 282 285 280
214 227 235 232 239 256 266 256 42 150 151 138 109 82 57 44 42 45 45 44 49 55 55 56 63 70 71 64 67 67 64 63 58 51 41 28 14 355 337 324 311 304 299 299 293 289 293 288 291
278 262 253 251 246 242 270 269 101 100 104 108 104 88 56 29 26 36 41 42 41 42 47 53 57 59 57 55 53 68 79 75 82 82 65 43 19 349 340 321 314 309 306 301 294 293 298 299 301